Change the Weather History Date:

Thursday, October 31, 2013

  Actual Average Record
Temperature  
Mean Temperature 48 °F -  
Max Temperature 51 °F 47 °F 64 °F (2014)
Min Temperature 44 °F 37 °F 30 °F (2008)
Degree Days  
Heating Degree Days 18    
Moisture  
Dew Point 43 °F    
Average Humidity 85    
Maximum Humidity 93    
Minimum Humidity 76    
Precipitation  
Precipitation 0.00 in - - ()
Sea Level Pressure  
Sea Level Pressure 29.68 in    
Wind  
Wind Speed 13 mph ()    
Max Wind Speed 23 mph    
Max Gust Speed 32 mph    
Visibility 6.2 miles    
Events Rain    
Averages and records for this station are not official NWS values.
T = Trace of Precipitation, MM = Missing Value Source: Averaged Metar Reports

Daily Weather History Graph

Daily Weather History Graph

Search for Another Location

Airport or City:

Trip Planner

Search our weather history database for the weather conditions in past years. The results will help you decide how hot, cold, wet, or windy it might be!

Date:

Astronomy

Oct. 31, 2013 Rise Set
Actual Time 7:22 AM GMT 4:39 PM GMT
Civil Twilight 6:42 AM GMT 5:18 PM GMT
Nautical Twilight 5:59 AM GMT 6:02 PM GMT
Astronomical Twilight 5:16 AM GMT 6:45 PM GMT
Moon 3:24 AM GMT (10/31) 3:17 PM GMT (10/31)
Length of Visible Light 10h 35m
Length of Day
9h 17m
Waning Crescent, 11% of the Moon is Illuminated
Oct 31
Waning Crescent
Nov 3
New
Nov 10
First Quarter
Nov 17
Full
Nov 25
Last Quarter

Hourly Weather History & Observations

Time (GMT) Temp. Windchill Dew Point Humidity Pressure Visibility Wind Dir Wind Speed Gust Speed Precip Events Conditions
12:20 AM 46.4 °F 40.4 °F 42.8 °F 87% 29.80 in - SW 13.8 mph - N/A   Clear
12:50 AM 44.6 °F 38.4 °F 41.0 °F 87% 29.80 in - SW 12.7 mph - N/A   Clear
1:20 AM 44.6 °F 38.1 °F 41.0 °F 87% 29.80 in - SW 13.8 mph - N/A   Clear
1:50 AM 46.4 °F 41.1 °F 42.8 °F 87% 29.80 in - SSW 11.5 mph - N/A   Clear
2:20 AM 46.4 °F 40.7 °F 42.8 °F 87% 29.80 in - SSW 12.7 mph - N/A   Clear
2:50 AM 46.4 °F 40.7 °F 42.8 °F 87% 29.80 in - SSW 12.7 mph - N/A   Clear
3:20 AM 46.4 °F 40.7 °F 42.8 °F 87% 29.77 in - SW 12.7 mph - N/A   Clear
3:50 AM 46.4 °F 41.1 °F 42.8 °F 87% 29.77 in - SW 11.5 mph - N/A   Clear
4:20 AM 46.4 °F 41.9 °F 42.8 °F 87% 29.77 in - SSW 9.2 mph - N/A   Clear
4:50 AM 46.4 °F 42.9 °F 42.8 °F 87% 29.77 in 6.2 mi SSW 6.9 mph - N/A   Partly Cloudy
5:20 AM 46.4 °F 41.5 °F 42.8 °F 87% 29.77 in - SW 10.4 mph - N/A   Clear
5:50 AM 44.6 °F 38.8 °F 42.8 °F 93% 29.74 in 6.2 mi SW 11.5 mph - N/A   Scattered Clouds
6:20 AM 46.4 °F 42.4 °F 42.8 °F 87% 29.74 in 6.2 mi South 8.1 mph - N/A   Mostly Cloudy
6:50 AM 48.2 °F - 42.8 °F 82% 29.71 in 6.2 mi SSW 10.4 mph - N/A   Mostly Cloudy
7:20 AM 48.2 °F - 44.6 °F 87% 29.71 in 5.0 mi SW 11.5 mph - N/A Rain Light Rain
7:50 AM 48.2 °F - 44.6 °F 87% 29.71 in 6.2 mi SSW 15.0 mph - N/A Rain Light Rain
8:20 AM 48.2 °F - 44.6 °F 87% 29.71 in 6.2 mi SSW 15.0 mph - N/A   Mostly Cloudy
8:50 AM 50.0 °F - 46.4 °F 87% 29.71 in 6.2 mi SW 16.1 mph - N/A   Mostly Cloudy
9:20 AM 50.0 °F - 46.4 °F 87% 29.71 in 6.2 mi SW 20.7 mph - N/A   Mostly Cloudy
9:50 AM 51.8 °F - 46.4 °F 82% 29.68 in 6.2 mi SW 19.6 mph - N/A   Mostly Cloudy
10:20 AM 51.8 °F - 46.4 °F 82% 29.68 in 6.2 mi SSW 20.7 mph - N/A   Mostly Cloudy
10:50 AM 51.8 °F - 46.4 °F 82% 29.68 in 6.2 mi SW 23.0 mph - N/A   Mostly Cloudy
11:20 AM 51.8 °F - 46.4 °F 82% 29.68 in 6.2 mi SW 20.7 mph 32.2 mph N/A   Mostly Cloudy
11:50 AM 51.8 °F - 46.4 °F 82% 29.68 in 6.2 mi SW 17.3 mph - N/A   Mostly Cloudy
12:20 PM 51.8 °F - 46.4 °F 82% 29.68 in 6.2 mi SW 19.6 mph - N/A   Scattered Clouds
12:50 PM 51.8 °F - 44.6 °F 76% 29.65 in 6.2 mi SW 23.0 mph - N/A   Scattered Clouds
1:20 PM 51.8 °F - 46.4 °F 82% 29.65 in 6.2 mi SW 20.7 mph - N/A   Mostly Cloudy
1:50 PM 51.8 °F - 46.4 °F 82% 29.62 in 6.2 mi SSW 20.7 mph - N/A   Mostly Cloudy
2:20 PM 51.8 °F - 46.4 °F 82% 29.62 in 6.2 mi SSW 17.3 mph - N/A Rain Light Rain
2:50 PM 50.0 °F - 46.4 °F 87% 29.59 in 6.2 mi SW 17.3 mph - N/A   Mostly Cloudy
3:20 PM 50.0 °F - 46.4 °F 87% 29.59 in 6.2 mi SW 17.3 mph - N/A   Mostly Cloudy
3:50 PM 44.6 °F 38.4 °F 42.8 °F 93% 29.62 in 6.2 mi West 12.7 mph - N/A Rain Light Rain
4:20 PM 46.4 °F 41.9 °F 42.8 °F 87% 29.59 in 6.2 mi WSW 9.2 mph - N/A   Scattered Clouds
4:50 PM 44.6 °F 42.2 °F 42.8 °F 93% 29.59 in 6.2 mi West 4.6 mph - N/A   Partly Cloudy
5:20 PM 44.6 °F 39.2 °F 41.0 °F 87% 29.62 in 6.2 mi SSW 10.4 mph - N/A   Scattered Clouds
5:50 PM 46.4 °F 40.1 °F 42.8 °F 87% 29.62 in 6.2 mi SW 15.0 mph - N/A   Scattered Clouds
6:20 PM 46.4 °F 40.1 °F 41.0 °F 81% 29.59 in 6.2 mi SW 15.0 mph - N/A   Scattered Clouds
6:50 PM 46.4 °F 39.5 °F 41.0 °F 81% 29.59 in 6.2 mi SW 17.3 mph - N/A   Partly Cloudy
7:20 PM 46.4 °F 39.8 °F 41.0 °F 81% 29.62 in 6.2 mi SW 16.1 mph - N/A   Partly Cloudy
7:50 PM 46.4 °F 42.4 °F 41.0 °F 81% 29.62 in 6.2 mi West 8.1 mph - N/A Rain Light Rain
8:20 PM 44.6 °F 38.4 °F 41.0 °F 87% 29.62 in 6.2 mi SW 12.7 mph - N/A   Mostly Cloudy
8:50 PM 46.4 °F 41.5 °F 41.0 °F 81% 29.59 in 6.2 mi SW 10.4 mph - N/A   Scattered Clouds
9:20 PM 46.4 °F 39.5 °F 41.0 °F 81% 29.59 in 6.2 mi SW 17.3 mph - N/A   Partly Cloudy
9:50 PM 46.4 °F 40.1 °F 41.0 °F 81% 29.59 in 6.2 mi SW 15.0 mph - N/A   Partly Cloudy
10:20 PM 46.4 °F 39.8 °F 41.0 °F 81% 29.62 in 6.2 mi SW 16.1 mph - N/A   Mostly Cloudy
10:50 PM 44.6 °F 36.9 °F 41.0 °F 87% 29.62 in 6.2 mi SW 18.4 mph - N/A   Mostly Cloudy
11:20 PM 44.6 °F 37.2 °F 41.0 °F 87% 29.62 in 6.2 mi SW 17.3 mph - N/A   Partly Cloudy
11:50 PM 46.4 °F 39.8 °F 41.0 °F 81% 29.62 in 6.2 mi WSW 16.1 mph - N/A Rain Light Rain Showers